This demonstration page uses our WeatherBlox Daily Observations layout. Learn more.

Left ArrowRight Arrow

Hourly Observations for January 2, 2017

Temp ( °F °C ) Dew Point ( °F °C ) Humidity (%) Winds ( mph kmh ) Pressure ( in mb ) Visibility ( mi km ) Precip ( " mm )
12:15 am 00:15 Cloudy 37 3 34 1 87 87 ENE 5 7 30.15 1021 10 16.0934 N/A
12:35 am 00:35 Cloudy 37 3 34 1 87 87 E 5 7 30.15 1021 10 16.0934 N/A
12:54 am 00:54 Cloudy 37 3 34 1 87 87 E 3 6 30.15 1021 10 16.0934 N/A
1:15 am 01:15 Cloudy 37 3 34 1 87 87 E 5 7 30.15 1021 10 16.0934 N/A
1:34 am 01:34 Cloudy 37 3 36 2 93 93 Calm 30.12 1020 10 16.0934 N/A
1:55 am 01:55 Cloudy 37 3 36 2 93 93 Calm 30.12 1020 10 16.0934 N/A
2:15 am 02:15 Cloudy 39 4 36 2 87 87 Calm 30.12 1020 10 16.0934 N/A
2:34 am 02:34 Cloudy 39 4 37 3 93 93 ESE 3 6 30.12 1020 10 16.0934 N/A
2:55 am 02:55 Cloudy 39 4 37 3 93 93 Calm 30.12 1020 7 11.26538 N/A
3:14 am 03:14 Cloudy 39 4 37 3 93 93 Calm 30.12 1020 7 11.26538 N/A
3:35 am 03:35 Cloudy 39 4 37 3 93 93 E 3 6 30.12 1020 7 11.26538 N/A
3:55 am 03:55 Cloudy 39 4 37 3 93 93 Calm 30.12 1020 7 11.26538 N/A
4:14 am 04:14 Cloudy 39 4 37 3 93 93 Calm 30.12 1020 5 8.0467 N/A
4:35 am 04:35 Cloudy 39 4 37 3 93 93 Calm 30.12 1020 4 6.43736 N/A
4:54 am 04:54 Cloudy 39 4 37 3 93 93 Calm 30.12 1020 3 4.82802 N/A
5:15 am 05:15 Cloudy 39 4 37 3 93 93 ENE 5 7 30.12 1020 2.5 4.02335 N/A
5:34 am 05:34 Cloudy 39 4 39 4 100 100 E 7 11 30.12 1020 2.5 4.02335 N/A
5:55 am 05:55 Cloudy 39 4 39 4 100 100 ESE 7 11 30.09 1019 2.5 4.02335 N/A
6:14 am 06:14 Cloudy 39 4 39 4 100 100 ESE 7 11 30.12 1020 3 4.82802 N/A
6:35 am 06:35 Cloudy 39 4 39 4 100 100 ESE 5 7 30.12 1020 4 6.43736 N/A
6:55 am 06:55 Cloudy 39 4 39 4 100 100 ESE 3 6 30.12 1020 4 6.43736 N/A
7:14 am 07:14 Cloudy 39 4 39 4 100 100 ESE 3 6 30.12 1020 5 8.0467 N/A
7:35 am 07:35 Cloudy 39 4 39 4 100 100 SE 5 7 30.12 1020 4 6.43736 N/A
7:54 am 07:54 Cloudy 41 5 39 4 93 93 ESE 3 6 30.12 1020 4 6.43736 N/A
8:14 am 08:14 Cloudy 41 5 39 4 93 93 E 5 7 30.12 1020 4 6.43736 N/A
8:35 am 08:35 Cloudy 41 5 39 4 93 93 E 3 6 30.12 1020 4 6.43736 N/A
8:54 am 08:54 Cloudy 41 5 39 4 93 93 ESE 3 6 30.12 1020 4 6.43736 N/A
9:15 am 09:15 Cloudy 41 5 39 4 93 93 Calm 30.15 1021 4 6.43736 N/A
9:34 am 09:34 Cloudy 41 5 41 5 100 100 Calm 30.15 1021 4 6.43736 N/A
9:55 am 09:55 Cloudy 41 5 41 5 100 100 E 3 6 30.15 1021 1.75 2.816345 N/A
10:14 am 10:14 Cloudy 43 6 41 5 93 93 E 5 7 30.15 1021 1.75 2.816345 N/A
10:35 am 10:35 Cloudy 43 6 41 5 93 93 SE 7 11 30.15 1021 1.75 2.816345 N/A
10:55 am 10:55 Cloudy 43 6 43 6 100 100 E 9 15 30.15 1021 2 3.21868 N/A
11:14 am 11:14 Cloudy 43 6 43 6 100 100 E 7 11 30.15 1021 3 4.82802 N/A
11:34 am 11:34 Cloudy 45 7 43 6 93 93 E 6 9 30.12 1020 3 4.82802 N/A
11:55 am 11:55 Cloudy 45 7 45 7 100 100 SE 7 11 30.12 1020 4 6.43736 N/A
12:14 pm 12:14 Cloudy 46 8 45 7 93 93 SE 7 11 30.12 1020 3 4.82802 N/A
12:34 pm 12:34 Cloudy 45 7 45 7 100 100 ESE 5 7 30.12 1020 2.5 4.02335 N/A
12:55 pm 12:55 Cloudy 46 8 45 7 93 93 E 9 15 30.06 1018 3 4.82802 N/A
1:15 pm 13:15 Cloudy 48 9 45 7 87 87 ESE 7 11 30.06 1018 4 6.43736 N/A
1:34 pm 13:34 Cloudy 48 9 46 8 94 94 ESE 9 15 30.03 1017 7 11.26538 N/A
1:55 pm 13:55 Cloudy 48 9 46 8 94 94 ESE 8 13 30.03 1017 7 11.26538 N/A
2:14 pm 14:14 Cloudy 50 10 46 8 88 88 SE 8 13 30.03 1017 10 16.0934 N/A
2:35 pm 14:35 Cloudy 50 10 46 8 88 88 SE 9 15 30.03 1017 10 16.0934 N/A
2:55 pm 14:55 Cloudy 50 10 46 8 88 88 SSE 9 15 30.03 1017 10 16.0934 N/A
3:14 pm 15:14 Cloudy 52 11 46 8 82 82 SSE 9 15 30.03 1017 10 16.0934 N/A
3:35 pm 15:35 Cloudy 52 11 46 8 82 82 SSE 8 13 30.03 1017 10 16.0934 N/A
3:55 pm 15:55 Cloudy 52 11 46 8 82 82 SSE 8 13 30.03 1017 10 16.0934 N/A
4:14 pm 16:14 Cloudy 52 11 46 8 82 82 SSE 7 11 30.03 1017 10 16.0934 N/A
4:35 pm 16:35 Cloudy 52 11 46 8 82 82 S 7 11 30.03 1017 10 16.0934 N/A
4:54 pm 16:54 Cloudy 50 10 46 8 88 88 SE 6 9 30.03 1017 10 16.0934 N/A
5:15 pm 17:15 Cloudy 50 10 46 8 88 88 ESE 6 9 30 1016 10 16.0934 N/A
5:35 pm 17:35 Cloudy 50 10 46 8 88 88 E 8 13 29.97 1015 10 16.0934 N/A
5:54 pm 17:54 Cloudy 48 9 46 8 94 94 E 8 13 29.97 1015 10 16.0934 N/A
6:14 pm 18:14 Cloudy 48 9 46 8 94 94 E 7 11 29.94 1014 7 11.26538 N/A
6:35 pm 18:35 Cloudy 50 10 46 8 88 88 ESE 8 13 29.94 1014 7 11.26538 N/A
6:55 pm 18:55 Cloudy 48 9 48 9 100 100 ESE 10 17 29.94 1014 7 11.26538 N/A
7:14 pm 19:14 Cloudy 50 10 48 9 94 94 SE 8 13 29.94 1014 5 8.0467 N/A
7:35 pm 19:35 Cloudy 50 10 48 9 94 94 SE 8 13 29.91 1013 5 8.0467 N/A
7:54 pm 19:54 Cloudy 50 10 48 9 94 94 SE 8 13 29.91 1013 3 4.82802 N/A
8:15 pm 20:15 Cloudy 50 10 48 9 94 94 SSE 5 7 29.91 1013 2 3.21868 N/A
8:35 pm 20:35 Cloudy 50 10 50 10 100 100 SSE 6 9 29.91 1013 2.5 4.02335 N/A
8:55 pm 20:55 Cloudy 50 10 50 10 100 100 SE 5 7 29.91 1013 2 3.21868 N/A
9:14 pm 21:14 Cloudy 50 10 50 10 100 100 SE 6 9 29.88 1012 2 3.21868 N/A
9:34 pm 21:34 Cloudy 50 10 50 10 100 100 W 3 6 29.91 1013 2.5 4.02335 N/A
9:55 pm 21:55 Cloudy 50 10 50 10 100 100 SE 7 11 29.88 1012 1.75 2.816345 N/A
10:15 pm 22:15 Cloudy 50 10 50 10 100 100 SSE 6 9 29.91 1013 3 4.82802 N/A
10:35 pm 22:35 Cloudy 50 10 50 10 100 100 SSE 5 7 29.88 1012 3 4.82802 N/A
10:54 pm 22:54 Cloudy 52 11 50 10 94 94 Calm 29.85 1011 2.5 4.02335 N/A
11:15 pm 23:15 Cloudy 52 11 50 10 94 94 Calm 29.85 1011 1.25 2.011675 N/A
11:34 pm 23:34 Cloudy 50 10 50 10 100 100 Calm 29.88 1012 0.5 0.80467 N/A
11:55 pm 23:55 Cloudy 50 10 50 10 100 100 Calm 29.83 1010 1 1.60934 N/A

Powered by AerisWeather